owner,sensor,date,latitude,longitude,air_temperature,qcFlag 
COMPS,ioos:station:USF.COMPS:EGK:1,2011-07-01T00:00:00Z,27.6010,-82.7510,28.2,1111122 
COMPS,ioos:station:USF.COMPS:EGK:1,2011-07-01T00:06:00Z,27.6010,-82.7510,28.06,1111122 
COMPS,ioos:station:USF.COMPS:EGK:1,2011-07-01T00:12:00Z,27.6010,-82.7510,27.95,1111122 
COMPS,ioos:station:USF.COMPS:EGK:1,2011-07-01T00:18:00Z,27.6010,-82.7510,27.98,1111122 
COMPS,ioos:station:USF.COMPS:EGK:1,2011-07-01T00:24:00Z,27.6010,-82.7510,27.95,1111122 
COMPS,ioos:station:USF.COMPS:EGK:1,2011-07-01T00:30:00Z,27.6010,-82.7510,27.79,1111122 
COMPS,ioos:station:USF.COMPS:EGK:1,2011-07-01T00:36:00Z,27.6010,-82.7510,27.79,1111122 
COMPS,ioos:station:USF.COMPS:EGK:1,2011-07-01T00:42:00Z,27.6010,-82.7510,27.83,1111122 
COMPS,ioos:station:USF.COMPS:EGK:1,2011-07-01T00:48:00Z,27.6010,-82.7510,28.01,1111122 
COMPS,ioos:station:USF.COMPS:EGK:1,2011-07-01T00:54:00Z,27.6010,-82.7510,27.71,1111122 
COMPS,ioos:station:USF.COMPS:EGK:1,2011-07-01T01:00:00Z,27.6010,-82.7510,27.7,1111122 
COMPS,ioos:station:USF.COMPS:EGK:1,2011-07-01T01:06:00Z,27.6010,-82.7510,27.66,1111122 
COMPS,ioos:station:USF.COMPS:EGK:1,2011-07-01T01:12:00Z,27.6010,-82.7510,27.79,1111122 
COMPS,ioos:station:USF.COMPS:EGK:1,2011-07-01T01:18:00Z,27.6010,-82.7510,27.69,1111122 
COMPS,ioos:station:USF.COMPS:EGK:1,2011-07-01T01:24:00Z,27.6010,-82.7510,27.66,1111122 
COMPS,ioos:station:USF.COMPS:EGK:1,2011-07-01T01:30:00Z,27.6010,-82.7510,27.63,1111122 
COMPS,ioos:station:USF.COMPS:EGK:1,2011-07-01T01:36:00Z,27.6010,-82.7510,27.69,1111122 
COMPS,ioos:station:USF.COMPS:EGK:1,2011-07-01T01:42:00Z,27.6010,-82.7510,27.68,1111122 
COMPS,ioos:station:USF.COMPS:EGK:1,2011-07-01T01:48:00Z,27.6010,-82.7510,27.57,1111122 
COMPS,ioos:station:USF.COMPS:EGK:1,2011-07-01T01:54:00Z,27.6010,-82.7510,27.53,1111122 
COMPS,ioos:station:USF.COMPS:EGK:1,2011-07-01T02:00:00Z,27.6010,-82.7510,27.5,1111122 
COMPS,ioos:station:USF.COMPS:EGK:1,2011-07-01T02:06:00Z,27.6010,-82.7510,27.55,1111122 
COMPS,ioos:station:USF.COMPS:EGK:1,2011-07-01T02:12:00Z,27.6010,-82.7510,27.48,1111122 
COMPS,ioos:station:USF.COMPS:EGK:1,2011-07-01T02:18:00Z,27.6010,-82.7510,27.52,1111122 
COMPS,ioos:station:USF.COMPS:EGK:1,2011-07-01T02:24:00Z,27.6010,-82.7510,27.57,1111122 
COMPS,ioos:station:USF.COMPS:EGK:1,2011-07-01T02:30:00Z,27.6010,-82.7510,27.8,1111122 
COMPS,ioos:station:USF.COMPS:EGK:1,2011-07-01T02:36:00Z,27.6010,-82.7510,27.8,1111122 
COMPS,ioos:station:USF.COMPS:EGK:1,2011-07-01T02:42:00Z,27.6010,-82.7510,27.55,1111122 
COMPS,ioos:station:USF.COMPS:EGK:1,2011-07-01T02:48:00Z,27.6010,-82.7510,27.54,1111122 
COMPS,ioos:station:USF.COMPS:EGK:1,2011-07-01T02:54:00Z,27.6010,-82.7510,27.66,1111122 
COMPS,ioos:station:USF.COMPS:EGK:1,2011-07-01T03:00:00Z,27.6010,-82.7510,27.7,1111122 
COMPS,ioos:station:USF.COMPS:EGK:1,2011-07-01T03:06:00Z,27.6010,-82.7510,27.77,1111122 
COMPS,ioos:station:USF.COMPS:EGK:1,2011-07-01T03:12:00Z,27.6010,-82.7510,27.82,1111122 
COMPS,ioos:station:USF.COMPS:EGK:1,2011-07-01T03:18:00Z,27.6010,-82.7510,27.86,1111122 
COMPS,ioos:station:USF.COMPS:EGK:1,2011-07-01T03:24:00Z,27.6010,-82.7510,27.86,1111122 
COMPS,ioos:station:USF.COMPS:EGK:1,2011-07-01T03:30:00Z,27.6010,-82.7510,27.81,1111122 
COMPS,ioos:station:USF.COMPS:EGK:1,2011-07-01T03:36:00Z,27.6010,-82.7510,27.82,1111122 
COMPS,ioos:station:USF.COMPS:EGK:1,2011-07-01T03:42:00Z,27.6010,-82.7510,27.89,1111122 
COMPS,ioos:station:USF.COMPS:EGK:1,2011-07-01T03:48:00Z,27.6010,-82.7510,27.74,1111122 
COMPS,ioos:station:USF.COMPS:EGK:1,2011-07-01T03:54:00Z,27.6010,-82.7510,27.62,1111122 
COMPS,ioos:station:USF.COMPS:EGK:1,2011-07-01T04:00:00Z,27.6010,-82.7510,27.6,1111122 
COMPS,ioos:station:USF.COMPS:EGK:1,2011-07-01T04:06:00Z,27.6010,-82.7510,27.54,1111122 
COMPS,ioos:station:USF.COMPS:EGK:1,2011-07-01T04:12:00Z,27.6010,-82.7510,27.72,1111122 
COMPS,ioos:station:USF.COMPS:EGK:1,2011-07-01T04:18:00Z,27.6010,-82.7510,27.94,1111122 
COMPS,ioos:station:USF.COMPS:EGK:1,2011-07-01T04:24:00Z,27.6010,-82.7510,28.08,1111122 
COMPS,ioos:station:USF.COMPS:EGK:1,2011-07-01T04:30:00Z,27.6010,-82.7510,28.02,1111122 
COMPS,ioos:station:USF.COMPS:EGK:1,2011-07-01T04:36:00Z,27.6010,-82.7510,28.02,1111122 
COMPS,ioos:station:USF.COMPS:EGK:1,2011-07-01T04:42:00Z,27.6010,-82.7510,28.02,1111122 
COMPS,ioos:station:USF.COMPS:EGK:1,2011-07-01T04:48:00Z,27.6010,-82.7510,27.95,1111122 
COMPS,ioos:station:USF.COMPS:EGK:1,2011-07-01T04:54:00Z,27.6010,-82.7510,28.07,1111122 
COMPS,ioos:station:USF.COMPS:EGK:1,2011-07-01T05:00:00Z,27.6010,-82.7510,28.1,1111122 
COMPS,ioos:station:USF.COMPS:EGK:1,2011-07-01T05:06:00Z,27.6010,-82.7510,28.22,1111122 
COMPS,ioos:station:USF.COMPS:EGK:1,2011-07-01T05:12:00Z,27.6010,-82.7510,28.01,1111122 
COMPS,ioos:station:USF.COMPS:EGK:1,2011-07-01T05:18:00Z,27.6010,-82.7510,28.07,1111122 
COMPS,ioos:station:USF.COMPS:EGK:1,2011-07-01T05:24:00Z,27.6010,-82.7510,28.05,1111122 
COMPS,ioos:station:USF.COMPS:EGK:1,2011-07-01T05:30:00Z,27.6010,-82.7510,28.21,1111122 
COMPS,ioos:station:USF.COMPS:EGK:1,2011-07-01T05:36:00Z,27.6010,-82.7510,28.17,1111122 
COMPS,ioos:station:USF.COMPS:EGK:1,2011-07-01T05:42:00Z,27.6010,-82.7510,28.25,1111122 
COMPS,ioos:station:USF.COMPS:EGK:1,2011-07-01T05:48:00Z,27.6010,-82.7510,28.24,1111122 
COMPS,ioos:station:USF.COMPS:EGK:1,2011-07-01T05:54:00Z,27.6010,-82.7510,28.31,1111122 
COMPS,ioos:station:USF.COMPS:EGK:1,2011-07-01T06:00:00Z,27.6010,-82.7510,28.3,1111122 
COMPS,ioos:station:USF.COMPS:EGK:1,2011-07-01T06:06:00Z,27.6010,-82.7510,28.23,1111122 
COMPS,ioos:station:USF.COMPS:EGK:1,2011-07-01T06:12:00Z,27.6010,-82.7510,28.15,1111122 
COMPS,ioos:station:USF.COMPS:EGK:1,2011-07-01T06:18:00Z,27.6010,-82.7510,28.22,1111122 
COMPS,ioos:station:USF.COMPS:EGK:1,2011-07-01T06:24:00Z,27.6010,-82.7510,28.42,1111122 
COMPS,ioos:station:USF.COMPS:EGK:1,2011-07-01T06:30:00Z,27.6010,-82.7510,28.35,1111122 
COMPS,ioos:station:USF.COMPS:EGK:1,2011-07-01T06:36:00Z,27.6010,-82.7510,28.26,1111122 
COMPS,ioos:station:USF.COMPS:EGK:1,2011-07-01T06:42:00Z,27.6010,-82.7510,28.25,1111122 
COMPS,ioos:station:USF.COMPS:EGK:1,2011-07-01T06:48:00Z,27.6010,-82.7510,28.39,1111122 
COMPS,ioos:station:USF.COMPS:EGK:1,2011-07-01T06:54:00Z,27.6010,-82.7510,28.26,1111122 
COMPS,ioos:station:USF.COMPS:EGK:1,2011-07-01T07:00:00Z,27.6010,-82.7510,28.3,1111122 
COMPS,ioos:station:USF.COMPS:EGK:1,2011-07-01T07:06:00Z,27.6010,-82.7510,28.08,1111122 
COMPS,ioos:station:USF.COMPS:EGK:1,2011-07-01T07:12:00Z,27.6010,-82.7510,28.16,1111122 
COMPS,ioos:station:USF.COMPS:EGK:1,2011-07-01T07:18:00Z,27.6010,-82.7510,28.15,1111122 
COMPS,ioos:station:USF.COMPS:EGK:1,2011-07-01T07:24:00Z,27.6010,-82.7510,28.09,1111122 
COMPS,ioos:station:USF.COMPS:EGK:1,2011-07-01T07:30:00Z,27.6010,-82.7510,28.04,1111122 
COMPS,ioos:station:USF.COMPS:EGK:1,2011-07-01T07:36:00Z,27.6010,-82.7510,28.08,1111122 
COMPS,ioos:station:USF.COMPS:EGK:1,2011-07-01T07:42:00Z,27.6010,-82.7510,28.18,1111122 
COMPS,ioos:station:USF.COMPS:EGK:1,2011-07-01T07:48:00Z,27.6010,-82.7510,28.08,1111122 
COMPS,ioos:station:USF.COMPS:EGK:1,2011-07-01T07:54:00Z,27.6010,-82.7510,28.05,1111122 
COMPS,ioos:station:USF.COMPS:EGK:1,2011-07-01T08:00:00Z,27.6010,-82.7510,28.1,1111122 
COMPS,ioos:station:USF.COMPS:EGK:1,2011-07-01T08:06:00Z,27.6010,-82.7510,28.12,1111122 
COMPS,ioos:station:USF.COMPS:EGK:1,2011-07-01T08:12:00Z,27.6010,-82.7510,27.96,1111122 
COMPS,ioos:station:USF.COMPS:EGK:1,2011-07-01T08:18:00Z,27.6010,-82.7510,27.96,1111122 
COMPS,ioos:station:USF.COMPS:EGK:1,2011-07-01T08:24:00Z,27.6010,-82.7510,28.01,1111122 
COMPS,ioos:station:USF.COMPS:EGK:1,2011-07-01T08:30:00Z,27.6010,-82.7510,28.16,1111122 
COMPS,ioos:station:USF.COMPS:EGK:1,2011-07-01T08:36:00Z,27.6010,-82.7510,28.11,1111122 
COMPS,ioos:station:USF.COMPS:EGK:1,2011-07-01T08:42:00Z,27.6010,-82.7510,28.09,1111122 
COMPS,ioos:station:USF.COMPS:EGK:1,2011-07-01T08:48:00Z,27.6010,-82.7510,28.09,1111122 
COMPS,ioos:station:USF.COMPS:EGK:1,2011-07-01T08:54:00Z,27.6010,-82.7510,28.17,1111122 
COMPS,ioos:station:USF.COMPS:EGK:1,2011-07-01T09:00:00Z,27.6010,-82.7510,28.2,1111122 
COMPS,ioos:station:USF.COMPS:EGK:1,2011-07-01T09:06:00Z,27.6010,-82.7510,28.08,1111122 
COMPS,ioos:station:USF.COMPS:EGK:1,2011-07-01T09:12:00Z,27.6010,-82.7510,28.06,1111122 
COMPS,ioos:station:USF.COMPS:EGK:1,2011-07-01T09:18:00Z,27.6010,-82.7510,27.97,1111122 
COMPS,ioos:station:USF.COMPS:EGK:1,2011-07-01T09:24:00Z,27.6010,-82.7510,28.14,1111122 
COMPS,ioos:station:USF.COMPS:EGK:1,2011-07-01T09:30:00Z,27.6010,-82.7510,28.07,1111122 
COMPS,ioos:station:USF.COMPS:EGK:1,2011-07-01T09:36:00Z,27.6010,-82.7510,27.96,1111122 
COMPS,ioos:station:USF.COMPS:EGK:1,2011-07-01T09:42:00Z,27.6010,-82.7510,27.97,1111122 
COMPS,ioos:station:USF.COMPS:EGK:1,2011-07-01T09:48:00Z,27.6010,-82.7510,28.08,1111122 
COMPS,ioos:station:USF.COMPS:EGK:1,2011-07-01T09:54:00Z,27.6010,-82.7510,28.09,1111122 
COMPS,ioos:station:USF.COMPS:EGK:1,2011-07-01T10:00:00Z,27.6010,-82.7510,28.1,1111122 
COMPS,ioos:station:USF.COMPS:EGK:1,2011-07-01T10:06:00Z,27.6010,-82.7510,27.97,1111122 
COMPS,ioos:station:USF.COMPS:EGK:1,2011-07-01T10:12:00Z,27.6010,-82.7510,28.1,1111122 
COMPS,ioos:station:USF.COMPS:EGK:1,2011-07-01T10:18:00Z,27.6010,-82.7510,28.08,1111122 
COMPS,ioos:station:USF.COMPS:EGK:1,2011-07-01T10:24:00Z,27.6010,-82.7510,27.98,1111122 
COMPS,ioos:station:USF.COMPS:EGK:1,2011-07-01T10:30:00Z,27.6010,-82.7510,27.96,1111122 
COMPS,ioos:station:USF.COMPS:EGK:1,2011-07-01T10:36:00Z,27.6010,-82.7510,27.97,1111122 
COMPS,ioos:station:USF.COMPS:EGK:1,2011-07-01T10:42:00Z,27.6010,-82.7510,28.06,1111122 
COMPS,ioos:station:USF.COMPS:EGK:1,2011-07-01T10:48:00Z,27.6010,-82.7510,27.82,1111122 
COMPS,ioos:station:USF.COMPS:EGK:1,2011-07-01T10:54:00Z,27.6010,-82.7510,27.83,1111122 
COMPS,ioos:station:USF.COMPS:EGK:1,2011-07-01T11:00:00Z,27.6010,-82.7510,27.8,1111122 
COMPS,ioos:station:USF.COMPS:EGK:1,2011-07-01T11:06:00Z,27.6010,-82.7510,28.06,1111122 
COMPS,ioos:station:USF.COMPS:EGK:1,2011-07-01T11:12:00Z,27.6010,-82.7510,27.98,1111122 
COMPS,ioos:station:USF.COMPS:EGK:1,2011-07-01T11:18:00Z,27.6010,-82.7510,27.93,1111122 
COMPS,ioos:station:USF.COMPS:EGK:1,2011-07-01T11:24:00Z,27.6010,-82.7510,27.82,1111122 
COMPS,ioos:station:USF.COMPS:EGK:1,2011-07-01T11:30:00Z,27.6010,-82.7510,28.0,1111122 
COMPS,ioos:station:USF.COMPS:EGK:1,2011-07-01T11:36:00Z,27.6010,-82.7510,28.0,1111122 
COMPS,ioos:station:USF.COMPS:EGK:1,2011-07-01T11:42:00Z,27.6010,-82.7510,27.71,1111122 
COMPS,ioos:station:USF.COMPS:EGK:1,2011-07-01T11:48:00Z,27.6010,-82.7510,26.65,1111122 
COMPS,ioos:station:USF.COMPS:EGK:1,2011-07-01T11:54:00Z,27.6010,-82.7510,26.08,1111122 
COMPS,ioos:station:USF.COMPS:EGK:1,2011-07-01T12:00:00Z,27.6010,-82.7510,26.1,1111122 
COMPS,ioos:station:USF.COMPS:EGK:1,2011-07-01T12:06:00Z,27.6010,-82.7510,25.13,1111122 
COMPS,ioos:station:USF.COMPS:EGK:1,2011-07-01T12:12:00Z,27.6010,-82.7510,25.44,1111122 
COMPS,ioos:station:USF.COMPS:EGK:1,2011-07-01T12:18:00Z,27.6010,-82.7510,25.76,1111122 
COMPS,ioos:station:USF.COMPS:EGK:1,2011-07-01T12:24:00Z,27.6010,-82.7510,26.52,1111122 
COMPS,ioos:station:USF.COMPS:EGK:1,2011-07-01T12:30:00Z,27.6010,-82.7510,26.31,1111122 
COMPS,ioos:station:USF.COMPS:EGK:1,2011-07-01T12:36:00Z,27.6010,-82.7510,26.09,1111122 
COMPS,ioos:station:USF.COMPS:EGK:1,2011-07-01T12:42:00Z,27.6010,-82.7510,25.96,1111122 
COMPS,ioos:station:USF.COMPS:EGK:1,2011-07-01T12:48:00Z,27.6010,-82.7510,26.23,1111122 
COMPS,ioos:station:USF.COMPS:EGK:1,2011-07-01T12:54:00Z,27.6010,-82.7510,26.17,1111122 
COMPS,ioos:station:USF.COMPS:EGK:1,2011-07-01T13:00:00Z,27.6010,-82.7510,26.2,1111122 
COMPS,ioos:station:USF.COMPS:EGK:1,2011-07-01T13:06:00Z,27.6010,-82.7510,25.43,1111122 
COMPS,ioos:station:USF.COMPS:EGK:1,2011-07-01T13:12:00Z,27.6010,-82.7510,25.69,1111122 
COMPS,ioos:station:USF.COMPS:EGK:1,2011-07-01T13:18:00Z,27.6010,-82.7510,25.74,1111122 
COMPS,ioos:station:USF.COMPS:EGK:1,2011-07-01T13:24:00Z,27.6010,-82.7510,25.86,1111122 
COMPS,ioos:station:USF.COMPS:EGK:1,2011-07-01T13:30:00Z,27.6010,-82.7510,26.07,1111122 
COMPS,ioos:station:USF.COMPS:EGK:1,2011-07-01T13:36:00Z,27.6010,-82.7510,26.4,1111122 
COMPS,ioos:station:USF.COMPS:EGK:1,2011-07-01T13:42:00Z,27.6010,-82.7510,26.44,1111122 
COMPS,ioos:station:USF.COMPS:EGK:1,2011-07-01T13:48:00Z,27.6010,-82.7510,26.25,1111122 
COMPS,ioos:station:USF.COMPS:EGK:1,2011-07-01T13:54:00Z,27.6010,-82.7510,26.41,1111122 
COMPS,ioos:station:USF.COMPS:EGK:1,2011-07-01T14:00:00Z,27.6010,-82.7510,26.4,1111122 
COMPS,ioos:station:USF.COMPS:EGK:1,2011-07-01T14:06:00Z,27.6010,-82.7510,26.4,1111122 
COMPS,ioos:station:USF.COMPS:EGK:1,2011-07-01T14:12:00Z,27.6010,-82.7510,26.62,1111122 
COMPS,ioos:station:USF.COMPS:EGK:1,2011-07-01T14:18:00Z,27.6010,-82.7510,26.39,1111122 
COMPS,ioos:station:USF.COMPS:EGK:1,2011-07-01T14:24:00Z,27.6010,-82.7510,25.44,1111122 
COMPS,ioos:station:USF.COMPS:EGK:1,2011-07-01T14:30:00Z,27.6010,-82.7510,25.42,1111122 
COMPS,ioos:station:USF.COMPS:EGK:1,2011-07-01T14:36:00Z,27.6010,-82.7510,25.42,1111122 
COMPS,ioos:station:USF.COMPS:EGK:1,2011-07-01T14:42:00Z,27.6010,-82.7510,25.41,1111122 
COMPS,ioos:station:USF.COMPS:EGK:1,2011-07-01T14:48:00Z,27.6010,-82.7510,25.71,1111122 
COMPS,ioos:station:USF.COMPS:EGK:1,2011-07-01T14:54:00Z,27.6010,-82.7510,26.02,1111122 
COMPS,ioos:station:USF.COMPS:EGK:1,2011-07-01T15:00:00Z,27.6010,-82.7510,26.0,1111122 
COMPS,ioos:station:USF.COMPS:EGK:1,2011-07-01T15:06:00Z,27.6010,-82.7510,26.32,1111122 
COMPS,ioos:station:USF.COMPS:EGK:1,2011-07-01T15:12:00Z,27.6010,-82.7510,26.38,1111122 
COMPS,ioos:station:USF.COMPS:EGK:1,2011-07-01T15:18:00Z,27.6010,-82.7510,26.53,1111122 
COMPS,ioos:station:USF.COMPS:EGK:1,2011-07-01T15:24:00Z,27.6010,-82.7510,26.6,1111122 
COMPS,ioos:station:USF.COMPS:EGK:1,2011-07-01T15:30:00Z,27.6010,-82.7510,26.37,1111122 
COMPS,ioos:station:USF.COMPS:EGK:1,2011-07-01T15:36:00Z,27.6010,-82.7510,26.45,1111122 
COMPS,ioos:station:USF.COMPS:EGK:1,2011-07-01T15:42:00Z,27.6010,-82.7510,26.49,1111122 
COMPS,ioos:station:USF.COMPS:EGK:1,2011-07-01T15:48:00Z,27.6010,-82.7510,26.63,1111122 
COMPS,ioos:station:USF.COMPS:EGK:1,2011-07-01T15:54:00Z,27.6010,-82.7510,26.71,1111122 
COMPS,ioos:station:USF.COMPS:EGK:1,2011-07-01T16:00:00Z,27.6010,-82.7510,26.67,1111122 
COMPS,ioos:station:USF.COMPS:EGK:1,2011-07-01T16:06:00Z,27.6010,-82.7510,26.8,1111122 
COMPS,ioos:station:USF.COMPS:EGK:1,2011-07-01T16:12:00Z,27.6010,-82.7510,26.9,1111122 
COMPS,ioos:station:USF.COMPS:EGK:1,2011-07-01T16:18:00Z,27.6010,-82.7510,26.94,1111122 
COMPS,ioos:station:USF.COMPS:EGK:1,2011-07-01T16:24:00Z,27.6010,-82.7510,26.9,1111122 
COMPS,ioos:station:USF.COMPS:EGK:1,2011-07-01T16:30:00Z,27.6010,-82.7510,27.19,1111122 
COMPS,ioos:station:USF.COMPS:EGK:1,2011-07-01T16:36:00Z,27.6010,-82.7510,27.43,1111122 
COMPS,ioos:station:USF.COMPS:EGK:1,2011-07-01T16:42:00Z,27.6010,-82.7510,27.6,1111122 
COMPS,ioos:station:USF.COMPS:EGK:1,2011-07-01T16:48:00Z,27.6010,-82.7510,27.48,1111122 
COMPS,ioos:station:USF.COMPS:EGK:1,2011-07-01T16:54:00Z,27.6010,-82.7510,27.49,1111122 
COMPS,ioos:station:USF.COMPS:EGK:1,2011-07-01T17:00:00Z,27.6010,-82.7510,27.5,1111122 
COMPS,ioos:station:USF.COMPS:EGK:1,2011-07-01T17:06:00Z,27.6010,-82.7510,28.13,1111122 
COMPS,ioos:station:USF.COMPS:EGK:1,2011-07-01T17:12:00Z,27.6010,-82.7510,28.19,1111122 
COMPS,ioos:station:USF.COMPS:EGK:1,2011-07-01T17:18:00Z,27.6010,-82.7510,28.1,1111122 
COMPS,ioos:station:USF.COMPS:EGK:1,2011-07-01T17:24:00Z,27.6010,-82.7510,28.11,1111122 
COMPS,ioos:station:USF.COMPS:EGK:1,2011-07-01T17:30:00Z,27.6010,-82.7510,28.3,1111122 
COMPS,ioos:station:USF.COMPS:EGK:1,2011-07-01T17:36:00Z,27.6010,-82.7510,28.63,1111122 
COMPS,ioos:station:USF.COMPS:EGK:1,2011-07-01T17:42:00Z,27.6010,-82.7510,28.57,1111122 
COMPS,ioos:station:USF.COMPS:EGK:1,2011-07-01T17:48:00Z,27.6010,-82.7510,28.44,1111122 
COMPS,ioos:station:USF.COMPS:EGK:1,2011-07-01T17:54:00Z,27.6010,-82.7510,28.51,1111122 
COMPS,ioos:station:USF.COMPS:EGK:1,2011-07-01T18:00:00Z,27.6010,-82.7510,28.5,1111122 
COMPS,ioos:station:USF.COMPS:EGK:1,2011-07-01T18:06:00Z,27.6010,-82.7510,28.63,1111122 
COMPS,ioos:station:USF.COMPS:EGK:1,2011-07-01T18:12:00Z,27.6010,-82.7510,28.58,1111122 
COMPS,ioos:station:USF.COMPS:EGK:1,2011-07-01T18:18:00Z,27.6010,-82.7510,28.75,1111122 
COMPS,ioos:station:USF.COMPS:EGK:1,2011-07-01T18:24:00Z,27.6010,-82.7510,28.58,1111122 
COMPS,ioos:station:USF.COMPS:EGK:1,2011-07-01T18:30:00Z,27.6010,-82.7510,28.51,1111122 
COMPS,ioos:station:USF.COMPS:EGK:1,2011-07-01T18:36:00Z,27.6010,-82.7510,28.53,1111122 
COMPS,ioos:station:USF.COMPS:EGK:1,2011-07-01T18:42:00Z,27.6010,-82.7510,28.59,1111122 
COMPS,ioos:station:USF.COMPS:EGK:1,2011-07-01T18:48:00Z,27.6010,-82.7510,28.32,1111122 
COMPS,ioos:station:USF.COMPS:EGK:1,2011-07-01T18:54:00Z,27.6010,-82.7510,28.66,1111122 
COMPS,ioos:station:USF.COMPS:EGK:1,2011-07-01T19:00:00Z,27.6010,-82.7510,28.7,1111122 
COMPS,ioos:station:USF.COMPS:EGK:1,2011-07-01T19:06:00Z,27.6010,-82.7510,28.38,1111122 
COMPS,ioos:station:USF.COMPS:EGK:1,2011-07-01T19:12:00Z,27.6010,-82.7510,28.56,1111122 
COMPS,ioos:station:USF.COMPS:EGK:1,2011-07-01T19:18:00Z,27.6010,-82.7510,28.63,1111122 
COMPS,ioos:station:USF.COMPS:EGK:1,2011-07-01T19:24:00Z,27.6010,-82.7510,28.56,1111122 
COMPS,ioos:station:USF.COMPS:EGK:1,2011-07-01T19:30:00Z,27.6010,-82.7510,28.57,1111122 
COMPS,ioos:station:USF.COMPS:EGK:1,2011-07-01T19:36:00Z,27.6010,-82.7510,28.7,1111122 
COMPS,ioos:station:USF.COMPS:EGK:1,2011-07-01T19:42:00Z,27.6010,-82.7510,29.0,1111122 
COMPS,ioos:station:USF.COMPS:EGK:1,2011-07-01T19:48:00Z,27.6010,-82.7510,29.06,1111122 
COMPS,ioos:station:USF.COMPS:EGK:1,2011-07-01T19:54:00Z,27.6010,-82.7510,29.18,1111122 
COMPS,ioos:station:USF.COMPS:EGK:1,2011-07-01T20:00:00Z,27.6010,-82.7510,29.2,1111122 
COMPS,ioos:station:USF.COMPS:EGK:1,2011-07-01T21:00:00Z,27.6010,-82.7510,29.1,1111122 
COMPS,ioos:station:USF.COMPS:EGK:1,2011-07-01T21:06:00Z,27.6010,-82.7510,29.16,1111122 
COMPS,ioos:station:USF.COMPS:EGK:1,2011-07-01T21:12:00Z,27.6010,-82.7510,29.24,1111122 
COMPS,ioos:station:USF.COMPS:EGK:1,2011-07-01T21:18:00Z,27.6010,-82.7510,29.32,1111122 
COMPS,ioos:station:USF.COMPS:EGK:1,2011-07-01T21:24:00Z,27.6010,-82.7510,29.03,1111122 
COMPS,ioos:station:USF.COMPS:EGK:1,2011-07-01T21:30:00Z,27.6010,-82.7510,29.16,1111122 
COMPS,ioos:station:USF.COMPS:EGK:1,2011-07-01T21:36:00Z,27.6010,-82.7510,29.19,1111122 
COMPS,ioos:station:USF.COMPS:EGK:1,2011-07-01T21:42:00Z,27.6010,-82.7510,29.16,1111122 
COMPS,ioos:station:USF.COMPS:EGK:1,2011-07-01T21:48:00Z,27.6010,-82.7510,29.28,1111122 
COMPS,ioos:station:USF.COMPS:EGK:1,2011-07-01T21:54:00Z,27.6010,-82.7510,29.24,1111122 
COMPS,ioos:station:USF.COMPS:EGK:1,2011-07-01T22:00:00Z,27.6010,-82.7510,29.07,1111122 
COMPS,ioos:station:USF.COMPS:EGK:1,2011-07-01T22:06:00Z,27.6010,-82.7510,29.35,1111122 
COMPS,ioos:station:USF.COMPS:EGK:1,2011-07-01T22:12:00Z,27.6010,-82.7510,29.25,1111122 
COMPS,ioos:station:USF.COMPS:EGK:1,2011-07-01T22:18:00Z,27.6010,-82.7510,29.59,1111122 
COMPS,ioos:station:USF.COMPS:EGK:1,2011-07-01T22:24:00Z,27.6010,-82.7510,29.44,1111122 
COMPS,ioos:station:USF.COMPS:EGK:1,2011-07-01T22:30:00Z,27.6010,-82.7510,29.33,1111122 
COMPS,ioos:station:USF.COMPS:EGK:1,2011-07-01T22:36:00Z,27.6010,-82.7510,29.0,1111122 
COMPS,ioos:station:USF.COMPS:EGK:1,2011-07-01T22:42:00Z,27.6010,-82.7510,29.21,1111122 
COMPS,ioos:station:USF.COMPS:EGK:1,2011-07-01T22:48:00Z,27.6010,-82.7510,29.55,1111122 
COMPS,ioos:station:USF.COMPS:EGK:1,2011-07-01T22:54:00Z,27.6010,-82.7510,29.44,1111122 
COMPS,ioos:station:USF.COMPS:EGK:1,2011-07-01T23:00:00Z,27.6010,-82.7510,29.4,1111122 
COMPS,ioos:station:USF.COMPS:EGK:1,2011-07-01T23:06:00Z,27.6010,-82.7510,29.33,1111122 
COMPS,ioos:station:USF.COMPS:EGK:1,2011-07-01T23:12:00Z,27.6010,-82.7510,29.0,1111122 
COMPS,ioos:station:USF.COMPS:EGK:1,2011-07-01T23:18:00Z,27.6010,-82.7510,28.84,1111122 
COMPS,ioos:station:USF.COMPS:EGK:1,2011-07-01T23:24:00Z,27.6010,-82.7510,28.75,1111122 
COMPS,ioos:station:USF.COMPS:EGK:1,2011-07-01T23:30:00Z,27.6010,-82.7510,28.93,1111122 
COMPS,ioos:station:USF.COMPS:EGK:1,2011-07-01T23:36:00Z,27.6010,-82.7510,29.37,1111122 
COMPS,ioos:station:USF.COMPS:EGK:1,2011-07-01T23:42:00Z,27.6010,-82.7510,29.04,1111122 
COMPS,ioos:station:USF.COMPS:EGK:1,2011-07-01T23:48:00Z,27.6010,-82.7510,28.53,1111122 
COMPS,ioos:station:USF.COMPS:EGK:1,2011-07-01T23:54:00Z,27.6010,-82.7510,28.51,1111122 
COMPS,ioos:station:USF.COMPS:EGK:1,2011-07-02T00:00:00Z,27.6010,-82.7510,28.5,1111122 
COMPS,ioos:station:USF.COMPS:EGK:1,2011-07-02T00:06:00Z,27.6010,-82.7510,28.52,1111122 
COMPS,ioos:station:USF.COMPS:EGK:1,2011-07-02T00:12:00Z,27.6010,-82.7510,28.44,1111122 
COMPS,ioos:station:USF.COMPS:EGK:1,2011-07-02T00:18:00Z,27.6010,-82.7510,28.28,1111122 
COMPS,ioos:station:USF.COMPS:EGK:1,2011-07-02T00:24:00Z,27.6010,-82.7510,28.28,1111122 
COMPS,ioos:station:USF.COMPS:EGK:1,2011-07-02T00:30:00Z,27.6010,-82.7510,28.24,1111122 
COMPS,ioos:station:USF.COMPS:EGK:1,2011-07-02T00:36:00Z,27.6010,-82.7510,28.13,1111122 
COMPS,ioos:station:USF.COMPS:EGK:1,2011-07-02T00:42:00Z,27.6010,-82.7510,27.91,1111122 
COMPS,ioos:station:USF.COMPS:EGK:1,2011-07-02T00:48:00Z,27.6010,-82.7510,27.69,1111122 
COMPS,ioos:station:USF.COMPS:EGK:1,2011-07-02T00:54:00Z,27.6010,-82.7510,27.85,1111122 
COMPS,ioos:station:USF.COMPS:EGK:1,2011-07-02T01:00:00Z,27.6010,-82.7510,27.9,1111122 
COMPS,ioos:station:USF.COMPS:EGK:1,2011-07-02T01:06:00Z,27.6010,-82.7510,28.0,1111122 
COMPS,ioos:station:USF.COMPS:EGK:1,2011-07-02T01:12:00Z,27.6010,-82.7510,27.9,1111122 
COMPS,ioos:station:USF.COMPS:EGK:1,2011-07-02T01:18:00Z,27.6010,-82.7510,28.02,1111122 
COMPS,ioos:station:USF.COMPS:EGK:1,2011-07-02T01:24:00Z,27.6010,-82.7510,27.91,1111122 
COMPS,ioos:station:USF.COMPS:EGK:1,2011-07-02T01:30:00Z,27.6010,-82.7510,27.96,1111122 
COMPS,ioos:station:USF.COMPS:EGK:1,2011-07-02T01:36:00Z,27.6010,-82.7510,27.93,1111122 
COMPS,ioos:station:USF.COMPS:EGK:1,2011-07-02T01:42:00Z,27.6010,-82.7510,28.16,1111122 
COMPS,ioos:station:USF.COMPS:EGK:1,2011-07-02T01:48:00Z,27.6010,-82.7510,28.25,1111122 
COMPS,ioos:station:USF.COMPS:EGK:1,2011-07-02T01:54:00Z,27.6010,-82.7510,28.32,1111122 
COMPS,ioos:station:USF.COMPS:EGK:1,2011-07-02T02:00:00Z,27.6010,-82.7510,28.3,1111122 
COMPS,ioos:station:USF.COMPS:EGK:1,2011-07-02T02:06:00Z,27.6010,-82.7510,28.21,1111122 
COMPS,ioos:station:USF.COMPS:EGK:1,2011-07-02T02:12:00Z,27.6010,-82.7510,28.21,1111122 
COMPS,ioos:station:USF.COMPS:EGK:1,2011-07-02T02:18:00Z,27.6010,-82.7510,27.42,1111122 
COMPS,ioos:station:USF.COMPS:EGK:1,2011-07-02T02:24:00Z,27.6010,-82.7510,27.45,1111122 
COMPS,ioos:station:USF.COMPS:EGK:1,2011-07-02T02:30:00Z,27.6010,-82.7510,27.05,1111122 
COMPS,ioos:station:USF.COMPS:EGK:1,2011-07-02T02:36:00Z,27.6010,-82.7510,26.41,1111122 
COMPS,ioos:station:USF.COMPS:EGK:1,2011-07-02T02:42:00Z,27.6010,-82.7510,26.71,1111122 
COMPS,ioos:station:USF.COMPS:EGK:1,2011-07-02T02:48:00Z,27.6010,-82.7510,27.08,1111122 
COMPS,ioos:station:USF.COMPS:EGK:1,2011-07-02T02:54:00Z,27.6010,-82.7510,26.74,1111122 
COMPS,ioos:station:USF.COMPS:EGK:1,2011-07-02T03:00:00Z,27.6010,-82.7510,26.7,1111122 
COMPS,ioos:station:USF.COMPS:EGK:1,2011-07-02T03:06:00Z,27.6010,-82.7510,26.76,1111122 
COMPS,ioos:station:USF.COMPS:EGK:1,2011-07-02T03:12:00Z,27.6010,-82.7510,26.53,1111122 
COMPS,ioos:station:USF.COMPS:EGK:1,2011-07-02T03:18:00Z,27.6010,-82.7510,26.56,1111122 
COMPS,ioos:station:USF.COMPS:EGK:1,2011-07-02T03:24:00Z,27.6010,-82.7510,26.33,1111122 
COMPS,ioos:station:USF.COMPS:EGK:1,2011-07-02T03:30:00Z,27.6010,-82.7510,26.4,1111122 
COMPS,ioos:station:USF.COMPS:EGK:1,2011-07-02T03:36:00Z,27.6010,-82.7510,26.5,1111122 
COMPS,ioos:station:USF.COMPS:EGK:1,2011-07-02T03:42:00Z,27.6010,-82.7510,26.43,1111122 
COMPS,ioos:station:USF.COMPS:EGK:1,2011-07-02T03:48:00Z,27.6010,-82.7510,26.88,1111122 
COMPS,ioos:station:USF.COMPS:EGK:1,2011-07-02T03:54:00Z,27.6010,-82.7510,27.09,1111122 
COMPS,ioos:station:USF.COMPS:EGK:1,2011-07-02T04:00:00Z,27.6010,-82.7510,27.1,1111122 